Regional Weather Roundup
Issued by NWS Sterling, VA

Home | Current Version | Previous Version | Text Only | Print | Product List | Glossary On
Versions: 1 2 3 4 5 6 7 8 9 10 11 12 13 14 15 16 17 18 19 20 21 22 23 24 25 26 27 28 29 30 31 32 33 34 35 36 37 38 39 40 41 42 43 44 45 46 47 48 49 50
000
ASUS41 KLWX 200511
RWRLWX

REGIONAL WEATHER ROUNDUP
NATIONAL WEATHER SERVICE BALTIMORE MD/WASHINGTON DC
100 AM EDT FRI OCT 20 2017

Note: "FAIR" indicates few or no clouds below 12,000 feet
with no significant weather and/or obstructions to visibility.
 TC=TEMPERATURE CELSIUS

 * =Non NWS site. Station does not report precipitation (e.g. rain,
    snow, etc.), thunder, or fog.

DCZ001-MDZ009-015-VAZ040>042-051-053>054-200600-
WASHINGTON METRO

CITY           SKY/WX    TMP DP  RH WIND       PRES   REMARKS
WASHINGTON NAT FAIR      59  51  75 SW5       30.18S
DULLES         FAIR      48  46  93 CALM      30.18S
ANDREWS AFB    FAIR      52  47  83 CALM      30.16S
FT BELVOIR     FAIR      47  46  96 CALM      30.17F
QUANTICO       FAIR      52  51  97 NW8       30.19S
COLLEGE PARK*  FAIR      48  47  97 CALM      30.17S
LEESBURG*      FAIR      54  50  87 SW3       30.19R
MANASSAS*      FAIR      45  44  97 CALM      30.19S
GAITHERSBURG*  FAIR      49  47  93 CALM      30.18S

$$

MDZ006>007-011-014-200600-
BALTIMORE METRO

CITY           SKY/WX    TMP DP  RH WIND       PRES   REMARKS
BWI AIRPORT    FAIR      50  48  93 W6        30.15F
MD SCIENCE CTR   N/A     61  48  62 MISG      30.16S
MARTIN STATE   FAIR      52  52 100 CALM      30.17S
ANNAPOLIS      FAIR      58  54  86 CALM      30.16R
FORT MEADE*    FAIR      45  43  93 CALM      30.19S

$$

MDZ012-015-019>023-200600-
MARYLAND EASTERN SHORE

CITY           SKY/WX    TMP DP  RH WIND       PRES   REMARKS
OCEAN CITY     FAIR      57  56  96 W7        30.17S FOG
SALISBURY      CLOUDY    47  47 100 CALM      30.17S
CAMBRIDGE*     CLEAR     50  48  93 CALM      30.16F
EASTON*        FAIR      54  52  93 CALM      30.19S

$$

MDZ017>025-200600-
SOUTHERN MARYLAND

CITY           SKY/WX    TMP DP  RH WIND       PRES   REMARKS
PATUXENT RIVER FAIR      53  48  83 CALM      30.16S
ST INIGOES     FAIR      52  50  93 CALM      30.15F
LEONARDTOWN*   NOT AVBL

$$

MDZ003>005-200600-
NORTH CENTRAL MARYLAND

CITY           SKY/WX    TMP DP  RH WIND       PRES   REMARKS
FREDERICK*     FAIR      50  50 100 CALM      30.20S
HAGERSTOWN APT FAIR      59  44  57 SW3       30.17S
WESTMINSTER*   FAIR      55  48  76 SW3       30.17S

$$

MDZ501>502-200600-
WESTERN MARYLAND

CITY           SKY/WX    TMP DP  RH WIND       PRES   REMARKS
OAKLAND*       FAIR      52  41  66 W10G17    30.22F
CUMBERLAND*    FAIR      52  46  82 CALM      30.23S

$$

VAZ025>031-200600-
SHENANDOAH VALLEY

CITY           SKY/WX    TMP DP  RH WIND       PRES   REMARKS
WINCHESTER*    FAIR      55  41  58 CALM      30.18S
FRONT ROYAL*   FAIR      52  45  76 S5        30.18S
LURAY*         FAIR      46  45  93 CALM      30.21S
NEW MARKET*    FAIR      44  41  89 CALM      30.21S
STAUNTON*      FAIR      43  39  88 CALM      30.24S
WAYNESBORO*    FAIR      60  40  48 W6        30.22F

$$

WVZ021-048>050-054>055-200600-
EASTERN WEST VIRGINIA PANHANDLE

CITY           SKY/WX    TMP DP  RH WIND       PRES   REMARKS
MARTINSBURG    FAIR      56  43  61 S5        30.17S
PETERSBURG*    FAIR      45  41  86 CALM      30.22S

$$

VAZ036>039-050-200600-
CENTRAL FOOTHILLS

CITY           SKY/WX    TMP DP  RH WIND       PRES   REMARKS
CHARLOTTESVILL FAIR      52  48  86 CALM      30.19S
CULPEPER*      FAIR      45  43  92 CALM      30.19S
ORANGE*        FAIR      45  43  93 CALM      30.18S
GORDONSVILLE*  FAIR      45  45 100 CALM      30.18S
WARRENTON*     FAIR      43  40  89 CALM      30.18S

$$

VAZ055>057-200600-
NORTH AND CENTRAL PIEDMONT

CITY           SKY/WX    TMP DP  RH WIND       PRES   REMARKS
FREDERICKSBRG* FAIR      48  48 100 CALM      30.17S
STAFFORD*      FAIR      44  44 100 CALM      30.21F

$$

NCZ024-NYZ072-PAZ021-071-VAZ022-071-200600-
OTHER REGIONAL OBSERVATIONS

CITY           SKY/WX    TMP DP  RH WIND       PRES   REMARKS
NEW YORK CITY  FAIR      62  46  55 W8        30.10S
PHILADELPHIA   FAIR      57  51  80 W8        30.14S
PITTSBURGH     MOCLDY    55  47  74 W5        30.20R
ROANOKE        FAIR      53  43  68 W12       30.26S
RICHMOND       FAIR      50  45  83 S3        30.18S
RALEIGH        FAIR      49  48  97 CALM      30.22F

$$

ANZ530>537-200600-
MARINE OBSERVATIONS

STATION/POSITION TIME  TEMP    WIND        PRES
                       AIR SEA DIR/SP/G
                 (UTC) (F)     (DEG/KT/KT) (MB)
THOMAS PT LIGHT  0500   61 68  270/ 11/ 12   N/A
BALT KEY BRIDGE  0436   59     240/  6/  6 1021.0F
COVE POINT       0436   63     270/ 14/ 15 1021.5F
LEWISETTA        0436   61 65  250/  7/  8 1021.2F
SOLOMONS ISLAND  0436   60 69  290/  3/  5 1020.8F
PINEY POINT      0442          280/  4/  5   N/A

$$




USA.gov is the U.S. government's official web portal to all federal, state and local government web resources and services.